Time,TemperatureF,DewpointF,PressureIn,WindDirection,WindDirectionDegrees,WindSpeedMPH,WindSpeedGustMPH,Humidity,HourlyPrecipIn,Conditions,Clouds,dailyrainin,SolarRadiationWatts/m^2,SoftwareType,DateUTC
2013-09-24 00:23:00,71.0,67.0,-100.00,NNW,328,0.0,0.0,87,0.00,,,0.00,0.000000,,2013-09-24 05:23:00,
2013-09-24 00:34:00,71.0,67.0,-100.00,NNW,328,0.0,0.0,87,0.00,,,0.00,0.000000,,2013-09-24 05:34:00,
2013-09-24 00:43:00,71.0,67.0,-100.00,NNW,328,0.0,0.0,87,0.00,,,0.00,0.000000,,2013-09-24 05:43:00,
2013-09-24 00:53:00,71.0,67.0,-100.00,NNW,328,0.0,0.0,87,0.00,,,0.00,0.000000,,2013-09-24 05:53:00,
2013-09-24 01:02:00,71.0,67.0,-100.00,NNW,328,0.0,0.0,87,0.00,,,0.00,0.000000,,2013-09-24 06:02:00,
2013-09-24 01:03:00,72.0,66.0,-100.00,NNW,338,0.0,0.0,81,0.00,,,0.00,0.000000,,2013-09-24 06:03:00,
2013-09-24 01:42:00,72.0,66.0,-100.00,NNW,338,0.0,0.0,81,0.00,,,0.00,0.000000,,2013-09-24 06:42:00,
2013-09-24 01:52:00,72.0,66.0,-100.00,NNW,338,0.0,0.0,81,0.00,,,0.00,0.000000,,2013-09-24 06:52:00,
2013-09-24 02:22:00,74.0,66.0,-100.00,North,6,0.0,0.0,75,0.00,,,0.00,0.000000,,2013-09-24 07:22:00,
2013-09-24 02:32:00,74.0,66.0,-100.00,North,6,0.0,0.0,75,0.00,,,0.00,0.000000,,2013-09-24 07:32:00,
2013-09-24 02:43:00,74.0,66.0,-100.00,North,6,0.0,0.0,75,0.00,,,0.00,0.000000,,2013-09-24 07:43:00,
2013-09-24 02:52:00,74.0,66.0,-100.00,North,6,0.0,0.0,75,0.00,,,0.00,0.000000,,2013-09-24 07:52:00,
2013-09-24 03:02:00,74.0,66.0,-100.00,North,6,0.0,0.0,75,0.00,,,0.00,0.000000,,2013-09-24 08:02:00,
2013-09-24 03:23:00,74.0,66.0,-100.00,North,351,0.0,0.0,77,0.00,,,0.00,0.000000,,2013-09-24 08:23:00,
2013-09-24 03:32:00,74.0,66.0,-100.00,North,351,0.0,0.0,77,0.00,,,0.00,0.000000,,2013-09-24 08:32:00,
2013-09-24 03:42:00,74.0,66.0,-100.00,North,351,0.0,0.0,77,0.00,,,0.00,0.000000,,2013-09-24 08:42:00,
2013-09-24 03:52:00,74.0,66.0,-100.00,North,351,0.0,0.0,77,0.00,,,0.00,0.000000,,2013-09-24 08:52:00,
2013-09-24 04:01:00,74.0,66.0,-100.00,North,351,0.0,0.0,77,0.00,,,0.00,0.000000,,2013-09-24 09:01:00,
2013-09-24 04:03:00,74.0,65.0,-100.00,NW,324,0.0,0.0,74,0.00,,,0.00,0.000000,,2013-09-24 09:03:00,
2013-09-24 04:43:00,74.0,65.0,-100.00,NW,324,0.0,0.0,74,0.00,,,0.00,0.000000,,2013-09-24 09:43:00,
2013-09-24 04:54:00,74.0,65.0,-100.00,NW,324,0.0,0.0,74,0.00,,,0.00,0.000000,,2013-09-24 09:54:00,
2013-09-24 05:03:00,74.0,67.0,-100.00,NNE,25,0.0,0.0,78,0.00,,,0.00,0.000000,,2013-09-24 10:03:00,
2013-09-24 05:42:00,74.0,67.0,-100.00,NNE,25,0.0,0.0,78,0.00,,,0.00,0.000000,,2013-09-24 10:42:00,
2013-09-24 05:53:00,74.0,67.0,-100.00,NNE,25,0.0,0.0,78,0.00,,,0.00,0.000000,,2013-09-24 10:53:00,
2013-09-24 06:22:00,72.0,66.0,-100.00,NNE,19,0.0,0.0,82,0.00,,,0.00,0.000000,,2013-09-24 11:22:00,
2013-09-24 06:33:00,72.0,66.0,-100.00,NNE,19,0.0,0.0,82,0.00,,,0.00,0.000000,,2013-09-24 11:33:00,
2013-09-24 06:42:00,72.0,66.0,-100.00,NNE,19,0.0,0.0,82,0.00,,,0.00,0.000000,,2013-09-24 11:42:00,
2013-09-24 06:52:00,72.0,66.0,-100.00,NNE,19,0.0,0.0,82,0.00,,,0.00,0.000000,,2013-09-24 11:52:00,
2013-09-24 07:01:00,72.0,66.0,-100.00,NNE,19,0.0,0.0,82,0.00,,,0.00,0.000000,,2013-09-24 12:01:00,
2013-09-24 07:42:00,71.0,67.0,-100.00,NNE,31,0.0,0.0,86,0.00,,,0.00,0.000000,,2013-09-24 12:42:00,
2013-09-24 07:52:00,71.0,67.0,-100.00,NNE,31,0.0,0.0,86,0.00,,,0.00,0.000000,,2013-09-24 12:52:00,
2013-09-24 08:01:00,71.0,67.0,-100.00,NNE,31,0.0,0.0,86,0.00,,,0.00,0.000000,,2013-09-24 13:01:00,
2013-09-24 08:22:00,73.0,68.0,-100.00,NNW,334,0.0,0.0,84,0.00,,,0.00,46.000000,,2013-09-24 13:22:00,
2013-09-24 08:32:00,73.0,68.0,-100.00,NNW,334,0.0,0.0,84,0.00,,,0.00,46.000000,,2013-09-24 13:32:00,
2013-09-24 08:42:00,73.0,68.0,-100.00,NNW,334,0.0,0.0,84,0.00,,,0.00,46.000000,,2013-09-24 13:42:00,
2013-09-24 08:52:00,73.0,68.0,-100.00,NNW,334,0.0,0.0,84,0.00,,,0.00,46.000000,,2013-09-24 13:52:00,
2013-09-24 09:02:00,73.0,68.0,-100.00,NNW,334,0.0,0.0,84,0.00,,,0.00,46.000000,,2013-09-24 14:02:00,
2013-09-24 09:21:00,78.0,69.0,-100.00,NNW,339,3.0,5.0,73,0.00,,,0.00,255.000000,,2013-09-24 14:21:00,
2013-09-24 09:32:00,78.0,69.0,-100.00,NNW,339,3.0,5.0,73,0.00,,,0.00,255.000000,,2013-09-24 14:32:00,
2013-09-24 09:42:00,78.0,69.0,-100.00,NNW,339,3.0,5.0,73,0.00,,,0.00,255.000000,,2013-09-24 14:42:00,
2013-09-24 09:52:00,78.0,69.0,-100.00,NNW,339,3.0,5.0,73,0.00,,,0.00,255.000000,,2013-09-24 14:52:00,
2013-09-24 10:01:00,78.0,69.0,-100.00,NNW,339,3.0,5.0,73,0.00,,,0.00,255.000000,,2013-09-24 15:01:00,
2013-09-24 10:03:00,83.0,71.0,-100.00,NNW,347,7.0,11.0,67,0.00,,,0.00,482.000000,,2013-09-24 15:03:00,
2013-09-24 10:43:00,83.0,71.0,-100.00,NNW,347,7.0,11.0,67,0.00,,,0.00,482.000000,,2013-09-24 15:43:00,
2013-09-24 10:54:00,83.0,71.0,-100.00,NNW,347,7.0,11.0,67,0.00,,,0.00,482.000000,,2013-09-24 15:54:00,
2013-09-24 11:43:00,86.0,70.0,-100.00,North,351,7.0,14.0,59,0.00,,,0.00,679.000000,,2013-09-24 16:43:00,
2013-09-24 11:53:00,86.0,70.0,-100.00,North,351,7.0,14.0,59,0.00,,,0.00,679.000000,,2013-09-24 16:53:00,
2013-09-24 12:02:00,86.0,70.0,-100.00,North,351,7.0,14.0,59,0.00,,,0.00,679.000000,,2013-09-24 17:02:00,
2013-09-24 12:03:00,88.0,66.0,-100.00,NNW,340,8.0,15.0,49,0.00,,,0.00,837.000000,,2013-09-24 17:03:00,
2013-09-24 12:43:00,88.0,66.0,-100.00,NNW,340,8.0,15.0,49,0.00,,,0.00,837.000000,,2013-09-24 17:43:00,
2013-09-24 12:54:00,88.0,66.0,-100.00,NNW,340,8.0,15.0,49,0.00,,,0.00,837.000000,,2013-09-24 17:54:00,
2013-09-24 13:22:00,90.0,65.0,-100.00,North,354,8.0,16.0,44,0.00,,,0.00,940.000000,,2013-09-24 18:22:00,
2013-09-24 13:32:00,90.0,65.0,-100.00,North,354,8.0,16.0,44,0.00,,,0.00,940.000000,,2013-09-24 18:32:00,
2013-09-24 13:42:00,90.0,65.0,-100.00,North,354,8.0,16.0,44,0.00,,,0.00,940.000000,,2013-09-24 18:42:00,
2013-09-24 13:52:00,90.0,65.0,-100.00,North,354,8.0,16.0,44,0.00,,,0.00,940.000000,,2013-09-24 18:52:00,
2013-09-24 14:02:00,90.0,65.0,-100.00,North,354,8.0,16.0,44,0.00,,,0.00,940.000000,,2013-09-24 19:02:00,
2013-09-24 14:22:00,91.0,62.0,-100.00,North,357,8.0,16.0,38,0.00,,,0.00,949.000000,,2013-09-24 19:22:00,
2013-09-24 14:32:00,91.0,62.0,-100.00,North,357,8.0,16.0,38,0.00,,,0.00,949.000000,,2013-09-24 19:32:00,
2013-09-24 14:42:00,91.0,62.0,-100.00,North,357,8.0,16.0,38,0.00,,,0.00,949.000000,,2013-09-24 19:42:00,
2013-09-24 14:52:00,91.0,62.0,-100.00,North,357,8.0,16.0,38,0.00,,,0.00,949.000000,,2013-09-24 19:52:00,
2013-09-24 15:02:00,91.0,62.0,-100.00,North,357,8.0,16.0,38,0.00,,,0.00,949.000000,,2013-09-24 20:02:00,
2013-09-24 15:22:00,92.0,59.0,-100.00,North,350,8.0,16.0,33,0.00,,,0.00,868.000000,,2013-09-24 20:22:00,
2013-09-24 15:32:00,92.0,59.0,-100.00,North,350,8.0,16.0,33,0.00,,,0.00,868.000000,,2013-09-24 20:32:00,
2013-09-24 15:42:00,92.0,59.0,-100.00,North,350,8.0,16.0,33,0.00,,,0.00,868.000000,,2013-09-24 20:42:00,
2013-09-24 15:52:00,92.0,59.0,-100.00,North,350,8.0,16.0,33,0.00,,,0.00,868.000000,,2013-09-24 20:52:00,
2013-09-24 16:02:00,92.0,59.0,-100.00,North,350,8.0,16.0,33,0.00,,,0.00,868.000000,,2013-09-24 21:02:00,
2013-09-24 16:03:00,93.0,58.0,-100.00,NNW,344,9.0,17.0,31,0.00,,,0.00,749.000000,,2013-09-24 21:03:00,
2013-09-24 16:44:00,93.0,58.0,-100.00,NNW,344,9.0,17.0,31,0.00,,,0.00,749.000000,,2013-09-24 21:44:00,
2013-09-24 16:54:00,93.0,58.0,-100.00,NNW,344,9.0,17.0,31,0.00,,,0.00,749.000000,,2013-09-24 21:54:00,
2013-09-24 17:03:00,92.0,56.0,-100.00,NNW,345,9.0,15.0,30,0.00,,,0.00,556.000000,,2013-09-24 22:03:00,
2013-09-24 17:43:00,92.0,56.0,-100.00,NNW,345,9.0,15.0,30,0.00,,,0.00,556.000000,,2013-09-24 22:43:00,
2013-09-24 17:54:00,92.0,56.0,-100.00,NNW,345,9.0,15.0,30,0.00,,,0.00,556.000000,,2013-09-24 22:54:00,
2013-09-24 18:43:00,92.0,57.0,-100.00,NNE,20,5.0,12.0,31,0.00,,,0.00,330.000000,,2013-09-24 23:43:00,
2013-09-24 18:53:00,92.0,57.0,-100.00,NNE,20,5.0,12.0,31,0.00,,,0.00,330.000000,,2013-09-24 23:53:00,
2013-09-24 19:02:00,92.0,57.0,-100.00,NNE,20,5.0,12.0,31,0.00,,,0.00,330.000000,,2013-09-25 00:02:00,
2013-09-24 19:22:00,86.0,57.0,-100.00,NNW,334,2.0,7.0,37,0.00,,,0.00,79.000000,,2013-09-25 00:22:00,
2013-09-24 19:33:00,86.0,57.0,-100.00,NNW,334,2.0,7.0,37,0.00,,,0.00,79.000000,,2013-09-25 00:33:00,
2013-09-24 19:42:00,86.0,57.0,-100.00,NNW,334,2.0,7.0,37,0.00,,,0.00,79.000000,,2013-09-25 00:42:00,
2013-09-24 19:52:00,86.0,57.0,-100.00,NNW,334,2.0,7.0,37,0.00,,,0.00,79.000000,,2013-09-25 00:52:00,
2013-09-24 20:02:00,86.0,57.0,-100.00,NNW,334,2.0,7.0,37,0.00,,,0.00,79.000000,,2013-09-25 01:02:00,
2013-09-24 20:42:00,77.0,66.0,-100.00,West,278,0.0,2.0,68,0.00,,,0.00,2.000000,,2013-09-25 01:42:00,
2013-09-24 20:52:00,77.0,66.0,-100.00,West,278,0.0,2.0,68,0.00,,,0.00,2.000000,,2013-09-25 01:52:00,
2013-09-24 21:02:00,77.0,66.0,-100.00,West,278,0.0,2.0,68,0.00,,,0.00,2.000000,,2013-09-25 02:02:00,
2013-09-24 21:22:00,72.0,66.0,-100.00,SE,128,0.0,0.0,82,0.00,,,0.00,0.000000,,2013-09-25 02:22:00,
2013-09-24 21:32:00,72.0,66.0,-100.00,SE,128,0.0,0.0,82,0.00,,,0.00,0.000000,,2013-09-25 02:32:00,
2013-09-24 21:42:00,72.0,66.0,-100.00,SE,128,0.0,0.0,82,0.00,,,0.00,0.000000,,2013-09-25 02:42:00,
2013-09-24 21:52:00,72.0,66.0,-100.00,SE,128,0.0,0.0,82,0.00,,,0.00,0.000000,,2013-09-25 02:52:00,
2013-09-24 22:02:00,72.0,66.0,-100.00,SE,128,0.0,0.0,82,0.00,,,0.00,0.000000,,2013-09-25 03:02:00,
2013-09-24 22:03:00,70.0,65.0,-100.00,ESE,108,0.0,0.0,83,0.00,,,0.00,0.000000,,2013-09-25 03:03:00,
2013-09-24 22:45:00,70.0,65.0,-100.00,ESE,108,0.0,0.0,83,0.00,,,0.00,0.000000,,2013-09-25 03:45:00,
2013-09-24 22:55:00,70.0,65.0,-100.00,ESE,108,0.0,0.0,83,0.00,,,0.00,0.000000,,2013-09-25 03:55:00,
2013-09-24 23:03:00,68.0,65.0,-100.00,West,263,0.0,0.0,89,0.00,,,0.00,0.000000,,2013-09-25 04:03:00,
2013-09-24 23:43:00,68.0,65.0,-100.00,West,263,0.0,0.0,89,0.00,,,0.00,0.000000,,2013-09-25 04:43:00,
2013-09-24 23:54:00,68.0,65.0,-100.00,West,263,0.0,0.0,89,0.00,,,0.00,0.000000,,2013-09-25 04:54:00,